Find Beidou DSW 3

NORAD ID: 27813 Int'l Des: 2003-021 Owner: CNSA Country: CN Constellation: BeiDou operational
HEOCIRCULAR

当前视图

正在加载3D地球...

关于 Beidou DSW 3

正在加载描述...

即将过境

Passes for default location (London). Set your location on the main map for personalized predictions.

高度历史

Loading altitude history...

两行轨道根数

1 27813U 03021A 26151.21396139 -.00000215 00000-0 00000+0 0 9994
2 27813 11.3456 41.3575 0018634 307.7574 264.9105 0.99770949 84130
Epoch: May 31, 2026 • Age: 18 hours

当前状态

高度 36004.8 km
速度 3.06 km/s
星下点 9.28°N, 72.53°W
发射日期 May 24, 2003
运行时间 23 years
类型 navigation

技术详情

分类 Payload
质量 2325.00 kg
干质量 1300.00 kg
总质量 2325.00 kg
长度 3.00 m
直径 1.70 m
跨度 18.00 m
形状 Box + 2 Pan
制造商 CAST
平台类型 DFH-3
阶段状态 In Orbit
所有者/国家 CNSA/CN

Most Searched